Theta_e
354 353 355 355 356 357 357 358 359 355 358 360 360 358 357 357 358 359 359 361 363 360 358 353 357 359 358 355 356 356 355 354 354 353 353 353 355 356 358 359 359 356 356
355 354 354 354 355 355 358 357 358 357 359 362 359 361 360 357 357 359 360 356 359 358 359 359 359 358 361 361 358 355 355 355 357 359 358 356 353 353 355 356 360 357 356
355 356 353 352 353 353 356 356 357 358 360 360 361 360 361 361 359 359 362 362 359 358 358 359 359 359 360 359 360 358 355 354 355 356 356 355 354 352 353 354 354 357 357
355 356 356 355 352 351 354 357 357 359 361 359 360 361 362 361 361 360 361 362 362 360 361 360 360 360 361 362 362 363 362 361 359 358 356 353 350 347 347 349 349 349 351
356 356 355 356 355 353 353 354 356 357 360 361 360 360 361 361 359 360 361 361 362 362 362 362 361 361 360 361 361 360 360 359 355 354 352 350 349 349 351 350 352 352 353
358 357 357 357 356 356 355 356 357 358 360 361 361 361 361 359 355 354 357 358 360 361 362 362 360 359 359 359 358 358 357 359 361 359 356 355 355 354 353 353 356 357 360
356 357 358 358 358 358 357 357 359 360 360 362 362 361 360 360 355 354 354 355 356 356 356 358 358 353 353 354 356 355 355 356 356 357 360 360 361 360 361 361 359 359 359
357 358 357 357 357 358 358 358 359 358 358 357 359 361 361 359 356 354 354 354 356 357 357 356 355 355 354 355 355 355 356 356 355 354 355 356 358 358 359 361 358 358 356
358 358 359 357 358 358 358 359 358 357 356 357 357 358 360 362 359 357 355 354 353 355 356 355 356 355 355 356 357 359 359 359 356 356 355 355 356 356 355 354 355 356 356
353 358 358 355 357 356 356 355 354 354 356 357 357 358 359 360 361 360 359 356 354 353 354 355 356 355 355 355 356 359 361 361 361 361 361 362 362 360 360 360 358 357 356
348 348 347 350 350 346 344 345 339 351 354 356 358 358 358 360 361 361 359 358 357 356 356 356 356 356 356 356 356 357 360 360 360 359 359 359 360 360 358 356 356 357 356
343 345 343 344 344 345 345 345 343 345 354 355 356 359 360 359 361 361 362 360 359 359 359 358 357 357 357 357 356 356 355 355 355 356 357 358 359 359 356 357 358 356 353
343 344 344 343 342 343 345 345 345 345 344 352 354 356 358 358 358 359 360 360 359 358 359 360 359 358 357 357 356 356 356 355 355 356 358 359 357 356 358 356 354 352 348
341 342 344 342 343 344 344 345 345 344 343 344 345 345 346 351 351 350 353 354 354 354 354 355 356 356 355 354 355 356 356 356 358 359 359 360 358 360 356 355 347 344 340
338 337 338 338 339 340 340 341 340 337 336 339 337 338 339 340 335 334 338 344 345 345 347 349 356 358 359 358 358 357 360 359 358 358 359 358 359 357 353 349 344 340 336
332 333 332 335 335 336 336 338 334 334 334 333 332 331 331 329 331 334 335 338 342 343 339 349 355 358 358 358 357 354 355 356 358 357 357 358 358 356 354 347 341 337 335
329 328 328 328 331 331 332 333 334 332 332 333 330 329 326 325 328 330 333 337 340 341 339 351 351 349 350 351 352 352 355 356 357 358 359 358 358 356 353 349 339 336 334
325 323 323 325 327 327 327 328 329 330 331 333 330 328 326 326 328 328 330 337 336 333 330 330 331 331 331 332 333 334 340 347 353 355 358 357 355 354 352 346 340 338 337
321 322 322 323 325 323 324 326 327 327 328 328 329 329 326 324 329 329 328 330 329 328 326 326 323 321 321 322 322 325 328 331 335 341 348 352 354 354 351 346 343 340 338
320 319 316 318 321 322 323 323 325 326 326 326 326 327 324 323 328 328 328 327 327 327 326 324 321 318 320 319 318 318 322 325 328 333 338 345 350 350 348 346 345 340 336
318 318 318 318 319 320 320 320 321 323 323 324 324 324 321 318 324 326 326 325 324 324 323 320 318 315 318 319 319 317 317 319 321 323 328 334 340 342 344 344 343 340 338
317 317 317 318 319 319 319 318 317 319 320 320 321 322 318 319 321 322 323 323 323 321 319 318 318 316 313 315 317 319 317 316 317 319 321 328 333 335 337 340 340 339 337
313 317 317 317 317 317 317 316 317 317 317 317 317 318 319 318 318 318 318 318 320 320 318 315 316 315 312 310 309 309 313 317 317 317 318 321 327 333 333 333 334 334 334
306 309 314 316 316 316 316 315 314 314 313 314 314 315 316 316 317 316 315 314 314 315 315 314 313 312 310 308 305 302 299 299 310 317 318 320 322 325 331 331 333 333 333
306 308 308 314 315 316 315 314 314 314 314 314 315 314 314 314 314 315 314 313 312 311 311 310 310 309 308 306 305 301 297 296 295 298 312 318 320 322 325 330 332 330 330
306 306 308 310 311 312 313 313 313 313 313 312 312 312 312 312 312 312 313 313 311 310 309 309 309 309 307 307 304 300 298 297 297 296 299 313 315 318 320 322 325 327 329
Wind_Speed
30 29 27 28 26 25 20 18 19 16 14 13 12 13 13 12 13 13 13 7 9 10 10 10 11 12 11 13 12 13 14 15 17 21 21 22 24 24 21 19 19 22 22
28 27 28 27 27 27 25 22 21 20 18 16 16 16 15 15 16 16 15 15 15 13 13 13 14 14 15 15 14 16 16 17 19 21 24 23 22 24 17 22 20 21 22
28 28 28 28 27 29 28 26 24 22 21 20 19 20 20 19 18 18 18 16 15 15 15 15 16 16 17 17 16 17 17 18 19 21 24 25 25 25 21 22 24 23 24
29 29 28 27 28 29 28 27 26 25 25 26 25 24 24 22 21 21 20 19 18 17 18 18 18 18 19 18 19 18 20 21 22 23 24 25 24 26 26 23 24 26 25
28 30 29 29 27 27 27 27 27 27 27 26 25 24 24 23 23 23 22 21 20 19 19 19 20 21 22 22 22 20 19 21 24 24 25 26 25 24 24 28 26 24 23
26 28 26 25 26 25 25 25 27 27 29 28 27 27 26 26 26 26 25 22 22 22 22 22 22 23 24 27 31 32 30 28 27 26 25 27 28 27 26 26 26 24 18
21 22 22 22 23 24 24 25 25 26 27 29 27 27 27 26 27 26 25 27 26 24 24 23 24 26 27 26 27 28 29 32 36 38 29 30 28 27 25 26 25 23 22
19 19 20 22 24 24 23 23 22 23 24 25 28 29 28 30 32 32 32 31 28 28 30 30 29 30 31 31 31 30 30 29 29 28 30 32 31 30 29 28 27 22 20
17 16 19 19 18 15 14 14 16 20 22 24 26 26 26 27 28 29 31 29 29 30 31 31 31 32 34 33 31 29 29 30 30 30 32 33 33 34 36 34 25 22 20
7 7 6 6 11 6 13 9 5 21 22 22 25 26 25 26 24 27 27 25 26 28 28 30 32 34 34 33 33 28 26 27 25 25 25 26 25 27 27 26 27 19 16
4 4 5 1 7 9 12 6 12 27 27 25 23 23 24 24 25 27 27 25 24 24 26 27 27 30 33 33 31 32 27 26 23 24 27 26 25 23 24 20 17 22 16
6 6 5 4 1 3 4 12 6 19 22 21 22 22 22 25 25 24 25 25 24 24 26 27 27 26 18 17 18 27 32 29 22 24 26 26 24 22 18 17 16 16 17
8 8 7 5 4 4 4 6 12 22 20 18 19 19 17 15 13 11 10 10 14 20 21 26 31 34 32 31 30 30 28 24 24 25 25 24 22 19 14 16 10 10 11
5 7 9 8 8 4 5 4 3 4 1 7 10 9 9 10 7 9 10 13 14 14 14 15 17 20 24 29 29 24 19 19 22 23 24 22 17 8 11 10 5 9 8
6 6 6 8 7 10 6 3 5 3 1 1 3 7 8 7 11 18 20 18 16 16 19 20 20 21 22 20 17 16 20 20 21 22 22 18 12 12 11 10 8 10 8
7 7 8 4 7 8 9 9 6 5 7 7 8 9 6 11 13 14 17 16 16 16 15 16 16 18 19 15 16 19 21 21 21 21 19 16 14 13 16 13 11 13 12
4 4 5 4 3 4 5 5 9 5 3 5 7 10 13 14 10 11 13 14 12 10 9 13 9 11 13 14 14 15 14 16 19 19 19 19 17 15 15 10 10 11 10
6 7 7 11 10 8 8 6 5 3 3 4 4 6 10 15 14 18 18 10 9 10 10 11 12 13 15 14 15 16 16 16 16 18 18 18 20 21 9 11 15 13 12
8 7 6 6 6 8 11 14 11 7 7 4 1 1 9 12 11 11 14 12 10 10 10 10 10 12 14 17 19 19 19 19 21 21 19 23 17 12 8 11 12 15 13
10 8 6 9 9 7 3 6 5 6 5 6 7 7 7 12 5 5 8 8 9 10 9 10 11 12 14 17 20 21 20 18 19 19 17 15 13 11 11 12 12 12 13
13 10 6 10 12 7 6 7 7 8 8 7 6 3 4 10 9 6 5 7 8 8 9 11 11 10 13 15 16 19 20 19 18 18 17 14 10 10 12 12 11 11 11
16 14 14 13 11 8 9 7 9 9 8 9 8 5 2 7 8 9 7 7 7 8 7 6 8 10 10 12 14 15 18 21 23 22 19 15 15 11 9 7 8 9 11
17 18 17 16 15 10 9 13 12 10 9 10 11 10 8 9 10 10 7 10 7 7 6 7 6 7 8 10 12 13 14 17 20 20 21 20 15 13 9 8 8 10 11
16 20 22 18 17 15 12 10 12 10 12 11 12 12 10 11 11 11 10 10 8 9 8 7 8 6 7 8 9 11 15 17 16 17 18 18 17 16 9 9 9 9 9
17 17 25 16 17 15 15 14 14 15 14 13 12 12 13 13 12 13 12 10 10 11 11 9 8 6 8 8 7 8 14 15 17 16 15 14 15 15 13 9 10 9 9
14 17 19 18 20 15 16 15 16 16 16 16 16 17 16 15 16 15 15 13 12 11 10 13 10 9 9 9 6 16 14 15 16 16 14 12 14 14 13 13 13 8 4
Wind_Direction
200 199 205 205 207 217 215 215 216 213 206 217 210 218 219 223 223 224 241 261 209 236 247 247 246 263 264 268 263 262 270 277 284 297 305 303 300 300 295 295 301 302 298
199 198 199 204 205 208 215 215 215 215 215 216 213 214 223 224 220 226 235 243 229 239 244 243 250 253 246 258 271 270 274 281 286 289 290 295 309 304 299 301 291 297 292
200 201 201 204 207 213 212 216 213 213 212 216 217 216 217 222 226 226 231 244 252 249 245 246 248 251 253 258 269 279 281 285 289 295 301 296 294 295 293 294 284 278 283
200 202 203 205 210 213 216 214 219 215 212 217 217 216 220 221 223 226 227 233 241 250 253 251 253 250 251 255 258 263 271 270 276 276 281 287 294 303 300 302 322 312 300
195 202 206 208 211 214 213 219 218 218 218 219 220 222 222 225 227 226 229 232 236 243 250 255 252 252 255 257 262 268 280 283 283 290 294 296 295 302 310 304 296 301 311
196 201 207 205 209 216 219 217 220 221 222 224 222 222 223 229 235 234 232 237 236 234 238 244 249 258 260 261 262 262 261 260 266 274 283 284 290 294 302 303 304 303 303
210 203 206 206 211 216 218 224 224 224 226 228 230 230 234 237 243 250 242 240 246 250 254 257 259 261 262 261 264 269 267 264 263 263 268 271 280 285 290 290 292 300 299
204 207 210 209 211 214 218 225 231 232 233 237 238 238 240 242 243 244 248 251 249 251 253 255 257 260 263 265 268 271 270 271 272 272 266 269 273 278 275 277 287 291 291
192 197 211 210 211 212 224 235 249 248 242 242 245 244 244 245 247 249 249 249 253 253 254 254 254 255 256 260 263 264 267 267 271 272 274 277 279 278 276 278 279 281 280
98 143 127 152 135 133 193 195 286 269 253 248 246 247 244 248 248 248 248 248 252 253 253 252 252 252 257 258 254 255 260 265 272 278 280 280 283 285 285 277 269 268 275
93 86 52 326 247 244 256 273 221 270 262 256 251 254 253 252 250 251 244 240 247 254 257 260 260 260 259 258 256 252 252 264 269 277 279 281 278 278 286 287 287 270 264
97 112 117 138 177 250 288 285 284 300 278 283 268 258 254 256 255 256 261 265 260 255 265 270 277 279 282 267 259 256 258 265 271 274 277 276 281 288 296 306 292 253 242
103 105 103 97 79 72 200 237 238 240 273 292 291 268 266 266 261 264 307 292 277 276 274 274 274 275 282 279 277 273 268 265 266 270 268 273 284 285 285 282 269 240 253
89 100 129 99 126 146 187 213 256 74 286 266 309 334 337 335 354 344 318 304 302 304 309 285 289 288 280 269 272 279 269 257 258 262 273 277 288 264 277 234 233 254 251
74 89 134 130 119 132 122 129 105 97 228 310 335 321 350 343 335 325 315 310 307 302 297 292 287 280 275 277 273 271 268 268 268 267 278 283 267 255 242 230 226 239 218
56 37 10 49 116 115 118 147 107 83 73 74 30 21 11 331 320 322 323 311 302 307 300 289 290 285 283 278 268 271 277 283 281 277 271 270 249 255 221 208 218 224 215
337 347 3 348 34 358 103 105 121 189 131 96 66 28 10 355 354 349 339 327 323 326 309 314 317 322 325 322 320 317 313 307 302 287 271 255 247 251 250 211 220 221 204
309 287 286 275 290 300 327 349 340 80 52 124 137 31 3 11 12 10 11 14 17 4 355 346 343 343 338 332 328 324 318 314 306 299 299 283 258 251 194 215 226 228 211
292 301 308 305 296 300 287 283 278 292 307 302 16 356 1 13 21 11 19 12 359 350 347 341 344 349 345 338 336 334 328 322 317 304 302 296 286 221 217 220 224 228 213
274 248 290 290 288 286 307 312 285 255 260 308 326 342 359 342 352 4 354 8 345 337 339 340 346 347 350 347 346 343 340 339 337 336 316 313 284 263 255 236 227 217 216
281 272 242 281 275 297 306 293 301 311 314 319 309 192 313 342 311 330 351 339 338 332 338 337 331 337 351 353 355 357 356 353 346 341 340 334 316 281 254 243 230 225 222
274 271 272 267 271 265 280 294 301 294 295 294 292 272 338 328 299 318 323 320 324 317 320 323 326 332 345 349 352 354 355 352 352 348 341 345 345 325 298 267 235 210 213
284 272 268 267 266 259 263 263 261 269 281 290 295 291 278 289 297 300 300 296 295 298 306 313 326 328 330 338 343 350 354 352 348 349 343 332 337 331 306 272 239 225 220
295 304 290 270 268 273 272 278 269 251 263 274 274 280 288 285 287 286 285 283 294 293 291 291 298 311 329 332 336 345 356 351 345 341 341 336 322 345 301 275 259 237 216
292 297 308 281 269 263 250 249 263 264 269 267 263 263 268 275 283 284 283 290 292 292 287 290 292 307 312 318 324 343 339 343 350 345 338 332 327 321 326 309 247 232 230
293 300 296 293 295 293 275 268 270 272 274 274 275 275 277 279 280 273 274 273 274 278 294 290 290 297 303 305 297 329 334 336 338 344 343 345 339 329 322 320 318 319 271